Weather History for KONA - February, 2014

Change the Weather History Date:

Friday, February 28, 2014

  Actual Average Record
Temperature  
Mean Temperature 2 °F -  
Max Temperature 17 °F 40 °F 50 °F (2004)
Min Temperature -13 °F 23 °F -13 °F (2014)
Degree Days  
Heating Degree Days 63    
Moisture  
Dew Point -1 °F    
Average Humidity 73    
Maximum Humidity 86    
Minimum Humidity 49    
Precipitation  
Precipitation 0.02 in - - ()
Sea Level Pressure  
Sea Level Pressure 30.03 in    
Wind  
Wind Speed 3 mph (SSE)    
Max Wind Speed 14 mph    
Max Gust Speed 18 mph    
Visibility 8 miles    
Events Snow    
Averages and records for this station are not official NWS values.
T = Trace of Precipitation, MM = Missing Value Source: NWS Daily Summary

Daily Weather History Graph

Daily Weather History Graph

Search for Another Location

Airport or City:

Trip Planner

Search our weather history database for the weather conditions in past years. The results will help you decide how hot, cold, wet, or windy it might be!

Date:

Astronomy

Feb. 28, 2014 Rise Set
Actual Time 6:45 AM CST 5:53 PM CST
Civil Twilight 6:16 AM CST 6:22 PM CST
Nautical Twilight 5:43 AM CST 6:56 PM CST
Astronomical Twilight 5:09 AM CST 7:29 PM CST
Moon 6:00 AM CST (2/28) 5:31 PM CST (2/28)
Length of Visible Light 12h 06m
Length of Day
11h 08m
Waning Crescent, 1% of the Moon is Illuminated
Feb 28
Waning Crescent
Mar 1
New
Mar 8
First Quarter
Mar 16
Full
Mar 23
Last Quarter

Hourly Weather History & Observations

Time (CST) Temp. Windchill Dew Point Humidity Pressure Visibility Wind Dir Wind Speed Gust Speed Precip Events Conditions
12:19 AM -9.4 °F - -16.6 °F 71% 30.14 in 10.0 mi Calm Calm - N/A   Clear
12:38 AM -13.0 °F - -18.4 °F 77% 30.14 in 10.0 mi Calm Calm - N/A   Clear
12:59 AM -11.2 °F - -16.6 °F 77% 30.14 in 10.0 mi Calm Calm - N/A   Scattered Clouds
1:19 AM -9.4 °F - -16.6 °F 71% 30.14 in 10.0 mi Calm Calm - N/A   Scattered Clouds
1:38 AM -13.0 °F - -18.4 °F 77% 30.14 in 10.0 mi Calm Calm - N/A   Mostly Cloudy
1:59 AM -9.4 °F - -16.6 °F 71% 30.13 in 10.0 mi Calm Calm - N/A   Mostly Cloudy
2:19 AM -9.4 °F - -16.6 °F 71% 30.12 in 10.0 mi Calm Calm - N/A   Overcast
2:38 AM -9.4 °F - -14.8 °F 77% 30.12 in 10.0 mi Calm Calm - N/A   Overcast
2:59 AM -7.6 °F -18.8 °F -14.8 °F 71% 30.10 in 10.0 mi SSE 4.6 mph - N/A   Scattered Clouds
3:19 AM -7.6 °F -18.8 °F -14.8 °F 71% 30.09 in 10.0 mi SSE 4.6 mph - N/A   Clear
3:38 AM -7.6 °F -18.8 °F -16.6 °F 65% 30.08 in 10.0 mi SSE 4.6 mph - N/A   Clear
3:59 AM -9.4 °F -22.7 °F -16.6 °F 71% 30.07 in 10.0 mi SSE 5.8 mph - N/A   Clear
4:19 AM -9.4 °F -20.9 °F -16.6 °F 71% 30.07 in 10.0 mi SSE 4.6 mph - N/A   Clear
4:38 AM -9.4 °F -18.6 °F -16.6 °F 71% 30.08 in 10.0 mi South 3.5 mph - N/A   Clear
4:59 AM -9.4 °F -22.7 °F -16.6 °F 71% 30.08 in 10.0 mi SSE 5.8 mph - N/A   Clear
5:19 AM -9.4 °F -24.3 °F -16.6 °F 71% 30.07 in 10.0 mi SSE 6.9 mph - N/A   Clear
5:39 AM -9.4 °F - -16.6 °F 71% 30.07 in 10.0 mi Calm Calm - N/A   Scattered Clouds
5:59 AM -7.6 °F -16.5 °F -14.8 °F 71% 30.07 in 10.0 mi South 3.5 mph - N/A   Overcast
6:19 AM -5.8 °F -16.7 °F -13.0 °F 71% 30.06 in 10.0 mi South 4.6 mph - N/A   Overcast
6:39 AM -5.8 °F -16.7 °F -13.0 °F 71% 30.06 in 10.0 mi SSE 4.6 mph - N/A   Overcast
6:59 AM -5.8 °F -18.4 °F -13.0 °F 71% 30.05 in 10.0 mi SSE 5.8 mph - N/A   Overcast
7:19 AM -4.0 °F -14.6 °F -13.0 °F 65% 30.04 in 10.0 mi SSE 4.6 mph - N/A   Overcast
7:39 AM -2.2 °F - -9.4 °F 71% 30.05 in 10.0 mi Calm Calm - N/A   Overcast
7:59 AM -2.2 °F - -9.4 °F 71% 30.04 in 10.0 mi Calm Calm - N/A   Overcast
8:19 AM -0.4 °F -8.3 °F -7.6 °F 72% 30.02 in 10.0 mi SSE 3.5 mph - N/A   Overcast
8:39 AM 1.4 °F -11.3 °F -7.6 °F 66% 30.02 in 10.0 mi SE 6.9 mph - N/A   Overcast
8:59 AM 3.2 °F -9.1 °F -7.6 °F 61% 30.01 in 10.0 mi SE 6.9 mph - N/A   Overcast
9:19 AM 3.2 °F -11.3 °F -5.8 °F 66% 30.00 in 10.0 mi SE 9.2 mph - N/A   Overcast
9:39 AM 3.2 °F -11.3 °F -5.8 °F 66% 29.99 in 10.0 mi SE 9.2 mph - N/A   Overcast
9:59 AM 5.0 °F -10.0 °F -5.8 °F 61% 29.99 in 10.0 mi SE 10.4 mph - N/A   Overcast
10:19 AM 8.6 °F -3.7 °F -4.0 °F 57% 29.99 in 10.0 mi SE 8.1 mph - N/A   Overcast
10:39 AM 8.6 °F -5.5 °F -4.0 °F 57% 29.98 in 10.0 mi SE 10.4 mph - N/A   Mostly Cloudy
10:59 AM 10.4 °F -2.4 °F -0.4 °F 62% 29.98 in 10.0 mi ESE 9.2 mph - N/A   Mostly Cloudy
11:19 AM 10.4 °F -1.5 °F -4.0 °F 52% 29.97 in 10.0 mi ESE 8.1 mph - N/A   Mostly Cloudy
11:39 AM 10.4 °F -1.5 °F -2.2 °F 57% 29.97 in 10.0 mi ESE 8.1 mph - N/A   Scattered Clouds
11:59 AM 10.4 °F -2.4 °F -2.2 °F 57% 29.96 in 10.0 mi ESE 9.2 mph - N/A   Mostly Cloudy
12:19 PM 12.2 °F 2.9 °F -0.4 °F 57% 29.96 in 10.0 mi ESE 5.8 mph - N/A   Scattered Clouds
12:39 PM 14.0 °F 3.9 °F 1.4 °F 57% 29.95 in 10.0 mi SE 6.9 mph - N/A   Scattered Clouds
12:59 PM 14.0 °F 5.1 °F 1.4 °F 57% 29.95 in 10.0 mi ESE 5.8 mph - N/A   Scattered Clouds
1:19 PM 14.0 °F 5.1 °F 1.4 °F 57% 29.95 in 10.0 mi SSE 5.8 mph - N/A   Scattered Clouds
1:39 PM 17.6 °F 12.3 °F 1.4 °F 49% 29.93 in 10.0 mi SSE 3.5 mph - N/A   Mostly Cloudy
1:59 PM 17.6 °F 12.3 °F 3.2 °F 53% 29.92 in 10.0 mi SSE 3.5 mph - N/A   Overcast
2:19 PM 17.6 °F 12.3 °F 6.8 °F 63% 29.94 in 1.8 mi South 3.5 mph - N/A Snow Light Snow
2:39 PM 17.6 °F - 10.4 °F 73% 29.94 in 1.2 mi Calm Calm - N/A Snow Light Snow
2:59 PM 17.6 °F 12.3 °F 12.2 °F 79% 29.94 in 0.8 mi SSE 3.5 mph - N/A Snow Light Snow
3:18 PM 17.6 °F - 12.2 °F 79% 29.94 in 0.8 mi Calm Calm - N/A Snow Light Snow
3:39 PM 17.6 °F - 14.0 °F 86% 29.95 in 1.2 mi Calm Calm - N/A Snow Light Snow
3:59 PM 17.6 °F - 14.0 °F 86% 29.94 in 1.5 mi Calm Calm - N/A Snow Light Snow
4:18 PM 17.6 °F - 14.0 °F 86% 29.95 in 4.0 mi Calm Calm - 0.02 in Snow Light Snow
4:39 PM 17.6 °F - 14.0 °F 86% 29.95 in 4.0 mi Calm Calm - 0.02 in Snow Light Snow
4:59 PM 17.6 °F - 14.0 °F 86% 29.96 in 1.5 mi Calm Calm - N/A Snow Light Snow
5:19 PM 17.6 °F - 14.0 °F 86% 29.97 in 1.5 mi Calm Calm - N/A Snow Light Snow
5:39 PM 17.6 °F - 14.0 °F 86% 29.97 in 1.8 mi Calm Calm - N/A Snow Light Snow
5:59 PM 17.6 °F - 14.0 °F 86% 29.97 in 2.5 mi Calm Calm - N/A Snow Light Snow
6:19 PM 17.6 °F - 14.0 °F 86% 29.98 in 4.0 mi Calm Calm - N/A Snow Light Snow
6:39 PM 17.6 °F - 14.0 °F 86% 29.99 in 5.0 mi Calm Calm - N/A Snow Light Snow
6:59 PM 17.6 °F - 14.0 °F 86% 30.00 in 4.0 mi Calm Calm - N/A Snow Light Snow
7:19 PM 17.6 °F 12.3 °F 14.0 °F 86% 30.00 in 7.0 mi WNW 3.5 mph - N/A Snow Light Snow
7:39 PM 17.6 °F - 14.0 °F 86% 30.01 in 7.0 mi Calm Calm - N/A   Overcast
7:59 PM 17.6 °F 12.3 °F 14.0 °F 86% 30.02 in 10.0 mi West 3.5 mph - N/A   Scattered Clouds
8:19 PM 17.6 °F 10.7 °F 12.2 °F 79% 30.02 in 10.0 mi WNW 4.6 mph - N/A   Mostly Cloudy
8:39 PM 17.6 °F 10.7 °F 12.2 °F 79% 30.03 in 10.0 mi WNW 4.6 mph - N/A   Overcast
8:59 PM 17.6 °F 12.3 °F 12.2 °F 79% 30.04 in 10.0 mi WNW 3.5 mph - N/A   Mostly Cloudy
9:19 PM 17.6 °F 10.7 °F 12.2 °F 79% 30.04 in 10.0 mi NW 4.6 mph - N/A   Scattered Clouds
9:39 PM 17.6 °F 9.3 °F 12.2 °F 79% 30.06 in 10.0 mi NW 5.8 mph - N/A   Mostly Cloudy
9:59 PM 17.6 °F 7.3 °F 12.2 °F 79% 30.06 in 10.0 mi NNW 8.1 mph - N/A   Scattered Clouds
10:19 PM 17.6 °F 6.4 °F 12.2 °F 79% 30.07 in 10.0 mi NNW 9.2 mph - N/A   Mostly Cloudy
10:39 PM 17.6 °F 5.7 °F 12.2 °F 79% 30.08 in 10.0 mi NNW 10.4 mph - N/A   Mostly Cloudy
10:59 PM 15.8 °F 4.2 °F 10.4 °F 79% 30.09 in 10.0 mi NNW 9.2 mph - N/A   Scattered Clouds
11:19 PM 15.8 °F 4.2 °F 10.4 °F 79% 30.10 in 10.0 mi NNW 9.2 mph - N/A   Scattered Clouds
11:39 PM 15.8 °F 2.7 °F 8.6 °F 73% 30.12 in 10.0 mi NW 11.5 mph - N/A   Scattered Clouds
11:59 PM 14.0 °F -0.8 °F 8.6 °F 79% 30.13 in 10.0 mi NW 13.8 mph 18.4 mph N/A   Scattered Clouds